OPTUS D1

Last updated on Sun Jun 21 2026 00:03:04 GMT+0000 (Coordinated Universal Time)

1 29495U 06043B 26171.46727737 -.00000189 00000+0 00000+0 0 9999 2 29495 3.0443 79.6192 0003494 1.4851 147.7714 1.00271392 72159
UTC large
Height (km)
Speed (km/s)
/
Latitude / Longitude
Inclination (degrees)
Orbital Period (minutes)
Azimuth
Elevation
Range (km)
Doppler Factor

Next 0 passes for location: London (51.5072 / 0.1276)

No passes found over London.
OPTUS D1